Weather Roundup
Issued by NWS

Home | Current Version | Previous Version | Graphics & Text | Print | Product List | Glossary Off
Versions: 1 2 3 4 5 6 7 8 9 10 11 12 13 14 15 16 17 18 19 20 21 22 23 24 25 26 27 28 29 30 31 32 33 34 35 36 37 38 39 40 41 42 43 44 45 46 47 48 49 50

000
NZUS93 KARX 210310
HRRWXR

CURRENT HOURLY OBSERVATIONS ACROSS
MUCH OF THE UPPER MISSISSIPPI VALLEY
NATIONAL WEATHER SERVICE LA CROSSE WI
1000 PM CDT MON OCT 20 2014


...SOUTHEAST MINNESOTA...


CITY           SKY/WX    TMP DP  RH WIND       PRES   REMARKS
ROCHESTER      CLEAR     48  40  73 NE8       30.06R
ROCHESTER/MAYO FAIR      51  38  60 NE8       30.06R
WINONA         CLEAR     46  41  81 CALM      30.06R
AUSTIN         CLEAR     46  39  76 NE3       30.05R
ALBERT LEA     CLEAR     48  39  71 CALM      30.05R
DODGE CENTER   CLEAR     46  39  76 NE3       30.06R
PRESTON        CLEAR     46  39  76 NE5       30.06R
OWATONNA       CLEAR     48  37  66 NE5       30.05S
FARIBAULT      CLEAR     43  37  81 CALM      30.06R
$$

...ELSEWHERE IN MINNESOTA...


CITY           SKY/WX    TMP DP  RH WIND       PRES   REMARKS
MINNEAPOLIS    CLEAR     50  40  68 NE6       30.07R
INTNL FALLS    CLOUDY    44  36  73 E6        30.12R
DULUTH         CLOUDY    46  35  65 NE6       30.10R
RED WING       CLEAR     46  39  76 SE5       30.06R
REDWOOD FALLS  CLEAR     54  39  57 N3        30.04S
MANKATO        CLEAR     54  36  50 E7        30.05S
WORTHINGTON    CLEAR     45  34  65 CALM      30.07R
FAIRMONT       CLEAR     50  36  57 MISG      30.04S
$$

...SOUTHWEST WISCONSIN...


CITY           SKY/WX    TMP DP  RH WIND       PRES   REMARKS
LA CROSSE      CLEAR     47  41  80 NW6       30.05R
PRAIRIE DU CHI CLEAR     50  39  65 CALM      30.04R
BOSCOBEL       CLEAR     44  39  82 CALM      30.05R
LONE ROCK      CLOUDY    56  39  53 NE6       30.04R
PLATTEVILLE    CLEAR     46  40  80 CALM      30.04R
FORT MC COY    CLOUDY    50  38  64 N3        30.06R
CAMP DOUGLAS   MOCLDY    48  43  81 CALM      30.05R
VIROQUA        FAIR      45  38  78 CALM      30.04S
WIS DELLS      CLOUDY    51  38  62 N3        30.04R
$$

...ELSEWHERE IN WISCONSIN...


CITY           SKY/WX    TMP DP  RH WIND       PRES   REMARKS
MILWAUKEE      MOCLDY    51  42  71 N7        30.01R
MADISON        CLOUDY    52  40  63 N8        30.03R
GREEN BAY      CLOUDY    48  41  76 N8        30.03R
EAU CLAIRE     PTCLDY    46  38  73 N5        30.06R
BLACK RVR FLS  FAIR      42  38  86 CALM      30.05R
MEDFORD        CLOUDY    46  40  79 N5        30.06R
WAUSAU         CLOUDY    45  40  82 NE5       30.04R
WIS RAPIDS     CLOUDY    49  40  71 N7        30.06R
MARSHFIELD     CLOUDY    49  40  71 N5        30.05R
RICE LAKE      CLOUDY    46  40  78 N5        30.09S
$$

...NORTHEAST IOWA...


CITY           SKY/WX    TMP DP  RH WIND       PRES   REMARKS
DECORAH        MOCLDY    50  41  71 VRB6      30.03R
MASON CITY     CLEAR     43  38  82 N7        30.06R
CHARLES CITY   CLEAR     45  39  81 CALM      30.04S
OELWEIN        CLEAR     50  41  71 N6        30.04R
$$

...ELSEWHERE IN IOWA...


CITY           SKY/WX    TMP DP  RH WIND       PRES   REMARKS
DES MOINES     CLEAR     56  40  55 CALM      30.04R
IOWA CITY      CLEAR     47  42  83 NW5       30.03R
FORT DODGE     CLEAR     45  37  76 CALM      30.05R
$$

...NORTHERN ILLINOIS...


CITY           SKY/WX    TMP DP  RH WIND       PRES   REMARKS
CHICAGO-OHARE  MOCLDY    53  41  63 N8        29.99R
CHICAGO-MIDWAY MOCLDY    55  42  61 N10       29.99R
MOLINE         CLEAR     48  42  80 CALM      30.00R
ROCKFORD       MOCLDY    51  41  68 NE6       30.04R
PEORIA         CLEAR     50  44  80 CALM      30.00R
$$

NOTE: "FAIR" INDICATES FEW OR NO CLOUDS BELOW 12,000 FEET WITH NO
SIGNIFICANT WEATHER AND/OR OBSTRUCTIONS TO VISIBILITY. WIND
SPEEDS ARE IN MILES-PER-HOUR.



USA.gov is the U.S. government's official web portal to all federal, state and local government web resources and services.